Wind_Speed
14 15 15 15 15 15 16 16 16 17 17 18 18 19 19 19 20 20 21 21 21 22 23 24 24 24 24 24 25 25 25 25 24 23 25 25 26 26 26 27 26 26 26
17 17 17 18 18 18 19 19 20 20 20 21 21 21 21 21 21 21 22 22 23 24 25 26 26 26 26 26 27 27 27 28 27 26 26 27 27 27 28 28 28 27 27
19 19 20 20 20 21 21 22 22 22 22 22 22 23 23 24 24 24 24 24 25 25 26 27 27 28 27 27 28 27 27 28 28 27 27 28 28 29 29 29 30 30 30
20 22 22 23 23 25 25 25 25 25 25 25 25 25 25 24 23 23 24 25 25 26 26 27 27 28 29 29 29 29 28 29 29 29 29 30 30 31 31 31 32 32 32
23 24 24 25 26 26 26 27 28 28 28 28 27 27 26 26 26 25 26 26 26 26 27 28 29 28 29 30 30 30 30 31 31 32 31 32 32 32 33 33 34 34 34
26 26 26 27 27 27 27 28 29 29 29 30 29 28 27 28 28 28 28 28 28 28 29 29 30 29 28 29 30 31 31 31 32 32 32 33 34 34 34 35 35 34 34
27 28 28 28 28 29 29 29 29 29 28 29 29 29 29 30 30 30 30 30 29 30 30 31 31 31 31 31 30 31 31 31 32 33 33 34 35 36 36 36 36 35 34
30 30 30 30 30 30 30 30 30 29 28 29 30 30 30 30 31 32 32 32 32 32 32 33 33 33 33 33 32 33 33 33 33 34 34 35 35 35 35 36 36 35 35
32 32 32 32 32 32 32 32 31 30 30 31 31 32 32 31 31 32 32 33 33 34 34 34 34 35 35 36 35 35 35 35 35 35 35 36 36 36 36 35 35 36 36
33 33 32 32 33 33 34 33 33 32 32 32 32 33 33 33 33 33 34 34 35 35 35 36 36 36 36 37 37 37 37 37 37 37 37 37 37 37 37 37 36 37 37
34 33 33 34 34 34 34 34 34 34 34 34 34 34 35 35 36 36 36 37 37 37 36 36 36 37 37 38 38 38 38 38 39 39 38 38 38 37 37 37 38 38 39
33 33 33 34 34 33 33 33 33 33 34 34 34 35 36 36 37 38 38 38 37 37 37 37 37 37 37 38 39 39 39 40 40 40 40 40 39 38 38 38 38 39 39
33 33 33 33 34 34 34 33 33 34 35 35 35 35 36 36 35 35 36 36 36 37 37 38 38 38 38 38 38 39 40 40 41 41 41 40 39 38 38 38 39 39 40
33 32 33 33 33 33 34 35 36 36 36 37 36 35 34 34 34 34 35 35 36 37 37 37 38 39 40 39 39 39 40 40 40 40 39 38 38 39 38 38 38 39 40
33 33 33 33 33 33 34 35 36 35 36 35 35 34 34 33 33 33 34 35 35 35 36 36 37 38 38 38 38 39 39 39 39 39 38 38 38 38 39 39 39 38 39
33 33 32 32 33 34 34 35 35 34 34 34 34 34 33 33 33 33 33 34 35 36 36 37 37 37 37 37 38 38 38 39 39 38 38 38 37 37 38 38 38 38 38
32 32 32 32 32 33 34 33 33 32 32 33 34 34 34 34 34 34 34 35 36 36 36 37 37 36 36 36 36 37 37 37 37 37 37 37 37 37 38 38 38 38 38
31 31 31 31 32 32 32 31 31 31 32 33 33 34 34 34 34 34 34 35 35 35 35 35 36 36 36 36 36 36 35 35 35 36 36 36 37 37 37 37 37 37 37
31 30 30 30 31 31 31 30 30 30 31 32 32 32 32 32 33 33 34 34 34 34 34 34 35 35 35 36 36 35 34 34 34 35 35 36 36 36 36 36 36 36 36
31 31 31 31 31 30 30 30 29 29 29 30 30 30 30 31 31 32 33 33 33 33 33 33 33 33 33 33 33 33 34 34 34 34 34 34 33 34 34 34 34 34 34
29 30 30 30 29 29 29 29 28 28 28 28 28 28 28 29 29 30 31 31 31 31 31 31 32 32 31 31 31 32 32 32 31 31 31 31 31 32 32 32 33 33 33
29 29 29 29 28 28 28 27 27 27 27 26 24 24 25 27 28 29 29 29 28 29 29 29 30 30 30 30 30 30 30 31 31 31 31 31 31 31 32 32 31 31 31
28 28 27 27 27 27 27 27 27 26 25 25 25 25 25 26 26 26 26 26 26 26 26 26 27 27 28 28 28 28 28 29 30 30 30 29 29 29 29 30 30 29 29
26 26 26 26 25 25 25 24 24 24 25 25 25 25 25 25 25 25 25 25 25 25 25 25 26 26 26 26 27 27 28 29 29 29 28 28 28 28 28 29 28 27 27
24 24 24 24 23 22 22 21 21 22 22 22 22 22 23 23 23 24 24 24 24 24 24 25 25 25 25 26 27 28 28 28 28 29 29 29 28 28 28 28 27 27 27
21 21 21 21 21 20 20 20 20 20 21 21 21 21 21 22 22 22 23 23 23 24 24 24 25 25 26 27 27 28 28 28 28 27 28 29 28 28 28 28 27 27 27
Wind_Direction
275 276 278 275 275 275 273 272 270 268 267 267 266 267 265 263 265 265 264 263 262 263 265 267 267 267 270 272 273 274 274 275 276 277 279 280 281 281 281 282 281 281 281
276 278 278 280 280 279 277 274 270 268 269 269 268 268 268 267 267 268 268 265 266 265 266 268 268 267 269 271 273 273 274 275 276 277 278 279 280 281 282 282 281 280 280
277 279 279 279 279 279 278 277 273 272 269 270 270 269 267 267 268 269 269 269 268 267 269 269 269 269 270 273 275 275 275 275 277 278 279 280 280 280 281 281 280 280 280
277 279 280 280 278 278 278 276 275 274 271 269 269 270 270 270 274 273 270 273 273 272 273 273 273 272 273 274 276 277 277 276 277 279 279 279 279 279 279 279 279 280 279
278 279 280 281 280 279 280 278 275 274 272 270 270 270 271 270 272 275 274 274 275 275 275 274 274 275 274 273 275 276 277 278 277 279 279 278 278 278 278 277 278 278 277
280 279 280 282 283 281 281 280 278 276 274 272 273 272 271 270 272 274 273 274 273 273 274 275 275 275 276 276 274 275 276 278 280 279 279 278 279 279 279 278 277 277 277
278 279 280 281 282 281 282 282 282 280 277 274 273 272 271 270 271 272 273 274 274 275 275 276 276 277 277 275 275 276 277 278 280 280 281 281 282 282 282 280 278 277 278
277 278 279 280 280 280 281 281 280 278 276 275 273 272 273 274 274 274 275 273 274 275 276 276 276 277 278 276 276 276 278 279 281 281 282 282 283 284 283 280 279 278 278
278 277 277 277 279 280 281 280 278 277 275 274 274 273 273 274 274 274 276 275 275 275 275 276 276 277 278 278 277 277 279 280 281 282 283 283 283 282 282 281 279 278 278
281 279 277 277 278 278 279 280 279 276 274 273 272 273 274 274 275 275 277 277 276 276 276 276 276 277 277 278 277 277 278 279 280 281 282 283 283 283 281 280 280 279 279
282 281 279 278 278 278 277 277 276 275 275 274 273 272 273 273 274 275 276 277 277 277 277 277 277 276 277 277 277 277 277 277 278 279 280 282 283 283 281 280 279 279 279
281 281 281 279 278 277 276 277 276 276 275 275 274 273 274 274 275 275 275 276 277 277 277 278 277 277 277 277 276 277 278 278 277 278 279 281 282 282 282 282 280 279 280
281 280 280 280 280 277 276 275 275 276 277 277 276 276 276 276 277 277 277 277 278 279 278 278 277 277 277 276 276 277 277 277 278 279 279 280 282 282 283 284 282 281 281
280 280 279 279 279 277 276 276 276 276 277 278 279 278 278 278 278 278 278 278 278 279 280 278 278 277 276 276 276 277 277 277 278 279 279 280 281 282 283 284 284 283 281
279 278 279 278 277 277 278 277 277 278 278 280 280 279 278 279 278 278 279 278 277 278 279 280 280 279 278 278 278 279 279 278 279 280 280 281 281 281 283 284 285 284 282
280 280 280 279 279 281 281 281 279 279 279 278 278 278 278 279 279 279 280 279 279 278 279 280 280 280 280 280 280 281 281 280 279 279 279 280 281 281 282 282 284 285 284
280 280 280 279 280 282 282 282 282 279 279 278 277 277 277 277 278 277 278 279 280 279 279 279 279 280 280 281 282 282 281 281 279 279 279 280 281 280 280 282 283 284 284
280 279 278 279 281 283 282 282 281 281 280 279 279 278 276 276 277 277 278 278 278 279 279 279 279 280 281 282 283 283 282 281 281 281 280 281 282 282 282 282 283 283 284
279 279 279 280 283 284 285 285 284 283 281 280 280 279 278 277 277 277 277 277 278 278 278 278 279 280 281 283 283 283 283 284 284 284 283 283 283 283 283 284 284 284 285
282 281 280 281 283 285 286 286 286 286 285 283 280 278 277 277 278 278 279 279 278 277 278 279 281 282 283 283 283 284 285 285 285 286 285 285 285 285 285 285 285 286 286
282 282 282 282 282 283 283 284 285 285 286 284 282 279 278 277 277 279 280 281 280 280 280 281 282 283 283 284 286 286 286 286 285 285 286 286 286 286 287 288 288 287 287
281 282 282 283 283 283 283 284 284 284 284 283 285 284 282 280 281 282 282 281 282 282 282 283 283 284 285 285 286 287 287 286 285 285 285 287 287 287 288 290 290 289 289
281 281 283 284 283 282 281 282 283 283 283 284 284 284 283 282 281 283 284 284 285 284 283 284 285 287 287 287 287 287 288 288 287 286 286 288 289 290 290 290 288 287 287
279 280 281 284 283 282 284 283 283 283 284 284 284 285 286 284 284 284 286 286 287 287 287 288 289 290 289 290 291 291 291 291 289 288 287 288 290 291 291 290 289 289 289
280 280 281 283 283 282 283 285 286 287 287 287 287 287 287 288 288 288 289 291 291 291 292 292 292 292 291 292 291 292 292 291 291 290 288 288 290 290 290 290 289 290 290
280 280 280 282 282 283 283 285 287 289 290 291 291 290 290 290 290 291 292 294 295 296 296 294 293 293 293 294 293 293 293 292 292 292 291 290 289 290 291 290 289 289 290
Height
5871 5871 5871 5870 5869 5869 5869 5868 5867 5867 5867 5866 5866 5866 5866 5865 5865 5865 5865 5865 5865 5865 5865 5865 5865 5865 5864 5864 5863 5862 5862 5862 5861 5861 5860 5858 5857 5856 5855 5854 5853 5852 5851
5867 5867 5866 5866 5865 5864 5864 5863 5862 5862 5861 5861 5861 5861 5861 5860 5859 5859 5859 5859 5859 5859 5859 5858 5858 5858 5857 5856 5856 5856 5855 5855 5855 5854 5853 5852 5850 5849 5848 5847 5846 5845 5844
5862 5862 5861 5860 5860 5859 5858 5857 5856 5856 5855 5855 5855 5854 5854 5854 5853 5852 5852 5852 5852 5852 5852 5851 5850 5850 5849 5849 5848 5848 5847 5847 5847 5846 5845 5844 5843 5842 5840 5839 5838 5837 5836
5856 5856 5855 5854 5853 5853 5852 5850 5849 5849 5848 5848 5848 5847 5847 5847 5846 5845 5846 5845 5845 5845 5844 5844 5843 5843 5842 5842 5841 5841 5840 5839 5838 5837 5837 5836 5835 5834 5832 5831 5830 5829 5828
5850 5849 5848 5847 5846 5845 5844 5843 5842 5841 5840 5840 5840 5840 5839 5839 5839 5838 5838 5838 5838 5838 5837 5836 5836 5835 5834 5834 5833 5833 5832 5831 5830 5829 5828 5827 5826 5825 5824 5822 5821 5820 5819
5842 5841 5840 5839 5838 5837 5836 5835 5833 5833 5832 5832 5831 5832 5831 5831 5831 5830 5830 5830 5830 5830 5829 5828 5828 5827 5826 5825 5825 5824 5823 5823 5821 5820 5818 5817 5816 5815 5814 5812 5811 5810 5810
5834 5834 5832 5831 5830 5829 5827 5826 5825 5824 5823 5823 5823 5823 5823 5823 5823 5823 5822 5822 5821 5821 5821 5820 5819 5819 5818 5817 5816 5815 5814 5813 5812 5811 5809 5808 5807 5805 5804 5802 5801 5800 5799
5826 5825 5824 5823 5822 5820 5819 5817 5816 5815 5815 5815 5815 5815 5815 5814 5814 5814 5813 5813 5813 5812 5812 5811 5811 5810 5809 5808 5807 5806 5805 5804 5803 5802 5800 5799 5797 5795 5794 5793 5791 5790 5789
5817 5816 5815 5813 5812 5811 5809 5808 5806 5806 5805 5806 5806 5805 5805 5805 5804 5804 5804 5803 5803 5803 5802 5802 5801 5801 5800 5799 5797 5796 5795 5794 5793 5791 5790 5789 5787 5785 5784 5782 5781 5779 5779
5807 5806 5804 5803 5802 5801 5800 5798 5797 5796 5796 5796 5796 5796 5795 5795 5795 5794 5794 5793 5793 5793 5792 5791 5791 5790 5789 5788 5787 5786 5785 5784 5783 5781 5780 5778 5776 5775 5773 5771 5770 5768 5767
5797 5795 5794 5793 5792 5791 5790 5789 5788 5787 5786 5786 5786 5785 5785 5785 5784 5784 5783 5783 5782 5782 5781 5781 5780 5779 5778 5777 5776 5775 5775 5773 5772 5771 5769 5767 5766 5764 5762 5760 5759 5758 5756
5786 5785 5784 5783 5782 5780 5779 5778 5777 5777 5776 5776 5775 5775 5774 5774 5774 5773 5772 5772 5772 5771 5771 5770 5769 5768 5767 5766 5765 5764 5763 5762 5761 5759 5758 5757 5755 5753 5751 5749 5747 5746 5744
5777 5775 5774 5773 5771 5770 5769 5768 5768 5766 5766 5765 5764 5763 5763 5763 5762 5762 5762 5761 5760 5760 5759 5759 5758 5757 5755 5755 5754 5753 5751 5750 5749 5748 5747 5746 5744 5742 5740 5738 5736 5734 5732
5767 5765 5764 5763 5761 5760 5759 5758 5757 5756 5755 5754 5752 5752 5752 5752 5751 5751 5750 5750 5749 5748 5748 5747 5746 5745 5744 5743 5742 5741 5739 5738 5737 5736 5735 5733 5732 5730 5729 5727 5725 5723 5721
5756 5755 5754 5753 5752 5750 5749 5748 5746 5745 5744 5743 5742 5741 5742 5742 5741 5741 5740 5739 5739 5738 5737 5736 5735 5734 5732 5731 5730 5729 5728 5726 5725 5724 5723 5721 5720 5718 5717 5716 5714 5711 5710
5746 5745 5744 5743 5742 5740 5739 5737 5735 5734 5733 5732 5731 5731 5730 5731 5730 5729 5729 5728 5728 5727 5726 5725 5724 5723 5722 5720 5719 5717 5716 5715 5713 5712 5711 5710 5708 5707 5705 5704 5702 5700 5699
5737 5736 5734 5733 5732 5731 5729 5727 5725 5724 5722 5721 5721 5720 5720 5720 5719 5719 5718 5718 5717 5716 5715 5714 5713 5712 5710 5709 5707 5706 5705 5703 5702 5701 5700 5699 5697 5696 5694 5692 5691 5689 5687
5727 5726 5725 5724 5723 5721 5719 5717 5716 5714 5713 5711 5710 5710 5709 5709 5709 5708 5708 5708 5707 5706 5705 5704 5702 5701 5699 5698 5697 5695 5694 5693 5691 5690 5689 5688 5686 5684 5683 5681 5679 5678 5676
5719 5718 5716 5715 5713 5712 5710 5708 5707 5705 5704 5702 5701 5700 5699 5699 5699 5698 5698 5697 5696 5695 5694 5693 5692 5690 5689 5688 5686 5685 5684 5683 5681 5680 5678 5677 5675 5673 5672 5670 5668 5667 5665
5710 5709 5708 5706 5705 5703 5701 5700 5698 5697 5695 5693 5692 5691 5690 5690 5689 5689 5688 5687 5686 5685 5684 5683 5682 5680 5679 5678 5676 5675 5674 5672 5671 5669 5668 5666 5665 5663 5661 5660 5658 5656 5654
5701 5700 5699 5697 5696 5695 5693 5692 5690 5689 5687 5685 5684 5683 5682 5681 5680 5680 5679 5678 5676 5675 5674 5673 5672 5671 5669 5668 5667 5665 5664 5662 5661 5659 5658 5656 5654 5653 5651 5649 5647 5645 5643
5693 5691 5690 5689 5688 5687 5685 5684 5682 5680 5679 5677 5676 5675 5674 5673 5673 5672 5671 5669 5668 5667 5666 5664 5663 5662 5660 5659 5658 5656 5654 5653 5652 5650 5649 5646 5645 5643 5641 5639 5637 5635 5633
5684 5683 5682 5681 5680 5678 5677 5676 5675 5673 5672 5670 5669 5668 5667 5666 5665 5664 5663 5661 5660 5658 5657 5656 5654 5653 5652 5650 5648 5647 5645 5644 5642 5641 5639 5637 5635 5633 5631 5629 5627 5625 5623
5676 5675 5674 5673 5672 5671 5670 5668 5667 5666 5665 5663 5662 5661 5660 5659 5657 5656 5655 5653 5652 5650 5649 5647 5646 5645 5643 5642 5640 5638 5636 5635 5633 5631 5630 5628 5626 5624 5622 5620 5618 5616 5615
5668 5668 5667 5666 5665 5664 5663 5661 5660 5659 5658 5656 5655 5654 5653 5651 5650 5649 5647 5646 5644 5642 5641 5640 5638 5637 5635 5633 5632 5630 5628 5626 5624 5622 5620 5619 5617 5615 5613 5611 5609 5608 5606
5661 5661 5660 5659 5658 5657 5656 5655 5654 5652 5651 5650 5649 5647 5646 5644 5643 5642 5640 5639 5637 5635 5634 5632 5630 5629 5627 5625 5623 5621 5619 5617 5615 5613 5611 5610 5608 5606 5604 5602 5601 5599 5598